Flag for China Weather past 2 weeks in Chongqing, Chongqing Municipality, China

Now
45 °F

Scattered clouds.


Feels Like: 45 °F
Forecast: 34 / 54 °F
Wind: 1 mph from North

Location: Chongqing Airport

Current Time: Dec 18, 2014 at 10:55:26 AM

Latest Report: Dec 18, 2014 at 10:00 AM


Visibility: N/A

Pressure: 30.48 "Hg

Humidity: 66%

Dew point: 34 °F

Location of ChongqingLocation

Historic Weather in Chongqing — Graph

°F

Chongqing temperature yesterday

Maximum temperature yesterday: 48 °F (at 3:00 PM)
Minimum temperature yesterday: 39 °F (at 12:00 AM)
Average temperature yesterday: 43 °F

Past Weeks' High & Low Weather Summary

 TemperatureHumidityPressure
High59 °F (Dec 7, 3:00 PM)94% (Dec 3, 11:00 AM)30.72 "Hg (Dec 3, 11:00 AM)
Low36 °F (Dec 13, 4:00 AM)43% (Dec 17, 3:00 PM)30.07 "Hg (Dec 6, 3:00 PM)
Average47 °F77%30.34 "Hg
* Reported Dec 3 8:00 AM — Dec 18 8:00 AM, Chongqing, Weather by CustomWeather, © 2014

Note: Actual official high and low records may vary slightly from our data, if they occured in-between our weather recording intervals... More about our weather records

Advertising

Chongqing weather history for previous 24 hours

 ConditionsComfort  
Time TempWeatherWind HumidityBarometerVisibility
8:00 AM
Dec 18
43 °FSunny.1 mph76%30.42 "Hg10 mi
7:00 AM43 °FClear.1 mph76%30.39 "Hg10 mi
6:00 AM43 °FClear.3 mph81%30.39 "Hg10 mi
5:00 AM43 °FClear.No wind76%30.39 "Hg10 mi
4:00 AM43 °FClear.1 mph76%30.39 "Hg10 mi
3:00 AM43 °FClear.1 mph71%30.39 "Hg10 mi
2:00 AM45 °FClear.1 mph61%30.42 "Hg10 mi
1:00 AM45 °FClear.1 mph61%30.42 "Hg10 mi
12:00 AM45 °FClear.6 mph57%30.42 "Hg10 mi
11:00 PM
Dec 17
45 °FClear.6 mph57%30.42 "Hg10 mi
10:00 PM45 °FClear.6 mph57%30.42 "Hg10 mi
9:00 PM45 °FClear.6 mph57%30.42 "Hg10 mi
8:00 PM46 °FClear.6 mph53%30.42 "Hg10 mi
7:00 PM46 °FClear.6 mph50%30.39 "Hg10 mi
6:00 PM46 °FClear.6 mph46%30.39 "Hg10 mi
5:00 PM48 °FSunny.6 mph43%30.36 "Hg10 mi
4:00 PM48 °FPassing clouds.3 mph43%30.39 "HgN/A
3:00 PM48 °FSunny.1 mph43%30.42 "Hg10 mi
2:00 PM46 °FSunny.1 mph46%30.45 "Hg10 mi
1:00 PM46 °FSunny.1 mph53%30.51 "Hg10 mi
12:00 PM45 °FPassing clouds.3 mph49%30.57 "HgN/A
11:00 AM43 °FSunny.1 mph66%30.60 "Hg10 mi
10:00 AM43 °FClear.1 mph71%30.60 "Hg5 mi
Weather by CustomWeather, © 2014

See weather overviewHow to use our weather pages